Location: Newark
(44.1667°N, 8.2500°E)
Time: 19:44:13
(UTC+00:00)

S-56A Canister/Altair - Pass Details

Date: 15 December 2019
Orbit: 634 x 2498 km, 38.9° (Epoch: 21 January)

Event Time Altitude Azimuth Distance (km) Brightness Sun altitude
Rises 11:16:44 0° 269° (W) 5,837 12.0 22.6°
Reaches altitude 10° 11:20:20 10° 267° (W) 4,970 11.8 22.6°
Maximum altitude 11:35:03 70° 189° (S) 2,602 11.0 22.5°
Drops below altitude 10° 11:48:57 10° 110° (ESE) 4,719 11.8 22.3°
Sets 11:52:17 0° 108° (ESE) 5,538 12.0 22.2°
